Location: ?????????
(38.5999°N, 22.7695°E)
Time: 17:54:11
(UTC+00:00)

CZ-2D R/B - Pass Details

Date: 23 May 2024
Orbit: 790 x 843 km, 98.8° (Epoch: 24 June)

Event Time Altitude Azimuth Distance (km) Brightness Sun altitude
Rises 00:12:29 0° 16° (NNE) 3,406 6.6 -25.7°
Reaches altitude 10° 00:14:54 10° 20° (NNE) 2,464 5.6 -25.5°
Maximum altitude 00:20:19 65° 102° (ESE) 914 2.3 -25.0°
Enters shadow 00:21:27 52° 155° (SSE) 1,027 2.4 -24.8°
